| time (UTC) | temp F | wind direction | speed MPH | gust MPH | rain 1hr in | rain 24hr in | rain mn in | humidity % | barometer mb |
| 20260507010005 | 52 | 40 | 0.0 | 3.0 | 0.00 | 0.09 | 0.09 | 28 | 1009.7 |
| 20260507004607 | 52 | 46 | 0.0 | 3.0 | 0.00 | 0.09 | 0.09 | 26 | 1009.5 |
| 20260507003057 | 52 | 254 | 0.0 | 3.0 | 0.00 | 0.09 | 0.09 | 24 | 1009.2 |
| 20260507001552 | 52 | 5 | 0.0 | 0.0 | 0.00 | 0.09 | 0.09 | 23 | 1009.0 |
| 20260507000048 | 52 | 5 | 0.0 | 4.0 | 0.00 | 0.09 | 0.09 | 24 | 1008.9 |
| 20260506234548 | 52 | 126 | 0.0 | 9.0 | 0.00 | 0.09 | 0.09 | 24 | 1008.5 |
| 20260506233046 | 53 | 165 | 0.0 | 4.0 | 0.00 | 0.09 | 0.09 | 21 | 1008.4 |
| 20260506231534 | 54 | 131 | 0.0 | 3.0 | 0.00 | 0.09 | 0.09 | 17 | 1007.9 |
| 20260506230029 | 55 | 295 | 0.0 | 3.0 | 0.00 | 0.09 | 0.09 | 15 | 1007.7 |
| 20260506224525 | 55 | 24 | 0.0 | 2.0 | 0.00 | 0.09 | 0.09 | 15 | 1007.3 |
| 20260506223021 | 56 | 79 | 0.0 | 1.0 | 0.00 | 0.09 | 0.09 | 15 | 1006.6 |
| 20260506221516 | 57 | 29 | 0.0 | 5.0 | 0.01 | 0.09 | 0.09 | 16 | 1006.4 |
| 20260506220012 | 59 | 76 | 2.0 | 14.0 | 0.01 | 0.09 | 0.09 | 13 | 1006.1 |
| 20260506214509 | 63 | 142 | 0.0 | 0.0 | 0.01 | 0.09 | 0.09 | 2 | 1004.9 |
| 20260506213003 | 63 | 142 | 0.0 | 1.0 | 0.01 | 0.09 | 0.09 | 2 | 1004.7 |
| 20260506211600 | 63 | 142 | 0.0 | 3.0 | 0.00 | 0.08 | 0.08 | 2 | 1004.7 |
| 20260506210054 | 63 | 138 | 0.0 | 0.0 | 0.00 | 0.08 | 0.08 | 2 | 1004.6 |
| 20260506204550 | 63 | 122 | 0.0 | 1.0 | 0.00 | 0.08 | 0.08 | 2 | 1004.5 |
| 20260506203045 | 64 | 121 | 0.0 | 1.0 | 0.00 | 0.08 | 0.08 | 2 | 1004.5 |
| 20260506201542 | 64 | 168 | 0.0 | 1.0 | 0.00 | 0.08 | 0.08 | 100 | 1004.4 |
| 20260506200037 | 64 | 187 | 0.0 | 0.0 | 0.01 | 0.08 | 0.08 | 100 | 1004.6 |
| 20260506194532 | 64 | 155 | 0.0 | 0.0 | 0.01 | 0.08 | 0.08 | 100 | 1004.6 |
| 20260506193028 | 64 | 223 | 0.0 | 3.0 | 0.01 | 0.08 | 0.08 | 100 | 1004.8 |
| 20260506191524 | 64 | 154 | 0.0 | 2.0 | 0.01 | 0.08 | 0.08 | 100 | 1004.9 |
| 20260506190019 | 64 | 149 | 0.0 | 3.0 | 0.00 | 0.07 | 0.07 | 1 | 1005.0 |
| 20260506184529 | 63 | 127 | 0.0 | 2.0 | 0.01 | 0.07 | 0.07 | 2 | 1005.1 |
| 20260506183019 | 63 | 154 | 0.0 | 2.0 | 0.01 | 0.07 | 0.07 | 3 | 1005.2 |
| 20260506181513 | 63 | 145 | 0.0 | 3.0 | 0.01 | 0.07 | 0.07 | 3 | 1005.3 |
| 20260506180002 | 63 | 84 | 0.0 | 3.0 | 0.01 | 0.07 | 0.07 | 3 | 1005.4 |
| 20260506174557 | 63 | 51 | 0.0 | 4.0 | 0.00 | 0.06 | 0.06 | 3 | 1005.3 |
| 20260506173100 | 63 | 117 | 1.0 | 7.0 | 0.01 | 0.06 | 0.06 | 3 | 1005.2 |
| 20260506171549 | 63 | 130 | 1.0 | 8.0 | 0.01 | 0.06 | 0.06 | 3 | 1005.3 |
| 20260506170048 | 63 | 108 | 1.0 | 11.0 | 0.02 | 0.06 | 0.06 | 4 | 1005.4 |
| 20260506164543 | 63 | 134 | 0.0 | 5.0 | 0.02 | 0.06 | 0.06 | 5 | 1005.6 |
| 20260506163039 | 62 | 128 | 0.0 | 3.0 | 0.01 | 0.05 | 0.05 | 5 | 1005.9 |
| 20260506161532 | 62 | 90 | 1.0 | 5.0 | 0.02 | 0.05 | 0.05 | 6 | 1006.1 |
| 20260506160026 | 62 | 15 | 1.0 | 6.0 | 0.01 | 0.04 | 0.04 | 7 | 1006.3 |
| 20260506154522 | 62 | 19 | 0.0 | 0.0 | 0.02 | 0.04 | 0.04 | 8 | 1006.5 |
| 20260506153022 | 61 | 17 | 0.0 | 0.0 | 0.02 | 0.04 | 0.04 | 10 | 1006.7 |
| 20260506151519 | 61 | 17 | 0.0 | 0.0 | 0.02 | 0.03 | 0.03 | 13 | 1006.8 |
| 20260506150016 | 60 | 17 | 0.0 | 0.0 | 0.03 | 0.03 | 0.03 | 15 | 1006.8 |
| 20260506144519 | 60 | 17 | 0.0 | 0.0 | 0.02 | 0.02 | 0.02 | 19 | 1007.1 |
| 20260506143015 | 60 | 17 | 0.0 | 0.0 | 0.02 | 0.02 | 0.02 | 24 | 1007.3 |
| 20260506141513 | 60 | 17 | 0.0 | 0.0 | 0.01 | 0.01 | 0.01 | 28 | 1007.4 |
| 20260506140015 | 60 | 17 | 0.0 | 0.0 | 0.00 | 0.00 | 0.00 | 33 | 1007.7 |
| 20260506134510 | 59 | 17 | 0.0 | 0.0 | 0.00 | 0.00 | 0.00 | 39 | 1007.3 |
| 20260506133009 | 59 | 17 | 0.0 | 0.0 | 0.00 | 0.00 | 0.00 | 40 | 1007.2 |
| 20260506131509 | 58 | 17 | 0.0 | 0.0 | 0.00 | 0.00 | 0.00 | 40 | 1007.3 |
| 20260506130009 | 58 | 17 | 0.0 | 0.0 | 0.00 | 0.00 | 0.00 | 37 | 1007.0 |
| 20260506124508 | 57 | 17 | 0.0 | 0.0 | 0.00 | 0.00 | 0.00 | 36 | 1007.2 |
| 20260506123008 | 57 | 17 | 0.0 | 0.0 | 0.00 | 0.00 | 0.00 | 36 | 1007.3 |
| 20260506121507 | 56 | 17 | 0.0 | 0.0 | 0.00 | 0.00 | 0.00 | 36 | 1007.8 |
| 20260506120015 | 56 | 17 | 0.0 | 0.0 | 0.00 | 0.00 | 0.00 | 36 | 1008.2 |
| 20260506114517 | 56 | 17 | 0.0 | 0.0 | 0.00 | 0.00 | 0.00 | 35 | 1007.9 |
| 20260506113018 | 56 | 17 | 0.0 | 0.0 | 0.00 | 0.00 | 0.00 | 34 | 1007.7 |
| 20260506111505 | 55 | 17 | 0.0 | 0.0 | 0.00 | 0.00 | 0.00 | 34 | 1007.5 |
| 20260506110006 | 55 | 17 | 0.0 | 0.0 | 0.00 | 0.00 | 0.00 | 34 | 1007.5 |
| 20260506104503 | 55 | 17 | 0.0 | 2.0 | 0.00 | 0.00 | 0.00 | 33 | 1007.2 |
| 20260506103003 | 55 | 17 | 0.0 | 0.0 | 0.00 | 0.00 | 0.00 | 33 | 1007.4 |
| 20260506101501 | 55 | 17 | 0.0 | 1.0 | 0.00 | 0.00 | 0.00 | 35 | 1007.2 |
| 20260506100101 | 54 | 17 | 0.0 | 0.0 | 0.00 | 0.00 | 0.00 | 36 | 1007.4 |
| 20260506094600 | 54 | 17 | 0.0 | 0.0 | 0.00 | 0.00 | 0.00 | 37 | 1007.2 |
| 20260506093058 | 54 | 17 | 0.0 | 0.0 | 0.00 | 0.00 | 0.00 | 39 | 1007.2 |
| 20260506091601 | 54 | 17 | 0.0 | 0.0 | 0.00 | 0.00 | 0.00 | 41 | 1007.2 |
| 20260506090100 | 55 | 17 | 0.0 | 0.0 | 0.00 | 0.00 | 0.00 | 43 | 1007.4 |
| 20260506084552 | 55 | 17 | 0.0 | 0.0 | 0.00 | 0.00 | 0.00 | 44 | 1007.5 |
| 20260506083050 | 55 | 17 | 0.0 | 0.0 | 0.00 | 0.00 | 0.00 | 44 | 1007.7 |
| 20260506081549 | 55 | 17 | 0.0 | 0.0 | 0.00 | 0.00 | 0.00 | 45 | 1007.8 |
| 20260506073042 | 56 | 17 | 0.0 | 0.0 | 0.00 | 0.00 | 0.00 | 50 | 1008.3 |
| 20260506071540 | 56 | 17 | 0.0 | 0.0 | 0.00 | 0.00 | 0.00 | 51 | 1008.4 |
| 20260506061535 | 58 | 17 | 0.0 | 0.0 | 0.00 | 0.00 | 0.00 | 57 | 1008.9 |
| 20260506044523 | 61 | 18 | 0.0 | 2.0 | 0.00 | 0.00 | 0.00 | 48 | 1008.6 |
| 20260506043020 | 61 | 19 | 0.0 | 3.0 | 0.00 | 0.00 | 0.00 | 43 | 1008.7 |
| 20260506041519 | 61 | 15 | 0.0 | 2.0 | 0.00 | 0.00 | 0.00 | 41 | 1008.6 |
| 20260506040022 | 61 | 15 | 0.0 | 1.0 | 0.00 | 0.00 | 0.00 | 43 | 1008.3 |
| 20260506034520 | 62 | 15 | 0.0 | 0.0 | 0.00 | 0.00 | 0.00 | 43 | 1008.1 |
| 20260506033015 | 62 | 15 | 0.0 | 0.0 | 0.00 | 0.00 | 0.00 | 44 | 1007.8 |
| 20260506031514 | 62 | 15 | 0.0 | 0.0 | 0.00 | 0.00 | 0.00 | 44 | 1007.7 |
| 20260506030026 | 62 | 13 | 0.0 | 2.0 | 0.00 | 0.00 | 0.00 | 46 | 1007.8 |
| 20260506024528 | 63 | 13 | 0.0 | 1.0 | 0.00 | 0.00 | 0.00 | 49 | 1007.9 |
| 20260506023014 | 63 | 13 | 0.0 | 0.0 | 0.00 | 0.00 | 0.00 | 49 | 1008.1 |
| 20260506021513 | 63 | 13 | 0.0 | 1.0 | 0.00 | 0.00 | 0.00 | 55 | 1007.6 |
| 20260506020012 | 63 | 13 | 0.0 | 1.0 | 0.00 | 0.00 | 0.00 | 58 | 1007.5 |
| 20260506014511 | 63 | 13 | 0.0 | 4.0 | 0.00 | 0.00 | 0.00 | 60 | 1007.8 |
| 20260506013018 | 64 | 13 | 0.0 | 2.0 | 0.00 | 0.00 | 0.00 | 61 | 1007.6 |
| 20260506011510 | 65 | 13 | 0.0 | 1.0 | 0.00 | 0.00 | 0.00 | 64 | 1007.3 |